Location: Praha
(50.0830°N, 14.4670°E)
Time: 16:26:42
(UTC+02:00)

ISS - Pass Details

Date: 19 May 2020
Orbit: 417 x 420 km, 51.6° (Epoch: 25 May)

Event Time Altitude Azimuth Distance (km) Brightness Sun altitude
Rises 02:17:13 0° 287° (WNW) 2,370 0.1 -18.0°
Reaches altitude 10° 02:19:22 10° 282° (WNW) 1,504 -1.0 -17.8°
Enters shadow 02:20:28 19° 275° (W) 1,085 -1.8 -17.8°
